AEE378 LGAV-LGMK

Flight info

Callsign AEE378
Flight time 0h 28m
Altitude 15000
Route KEA L995 VARIX
Aircraft A320/M-SDE3FGHIRWY/LB1

Departure

Time 2026-04-25 09:56
Airport Athens Eleftherios Venizelos International Airport (LGAV)

Arrival

Time 2026-04-25 10:24
Airport Mykonos Island National Airport (LGMK)
Time Latitude Longitude Altitude Speed Heading
2026-04-25 09:26 37.94121 23.95386 279 ft 0 kts 207°
2026-04-25 09:45 37.94126 23.95389 306 ft 2 kts 206°
2026-04-25 09:45 37.94143 23.95399 282 ft 3 kts 199°
2026-04-25 09:45 37.94163 23.95406 284 ft 3 kts 191°
2026-04-25 09:45 37.94183 23.95410 279 ft 3 kts 180°
2026-04-25 09:46 37.94202 23.95408 286 ft 3 kts 165°
2026-04-25 09:46 37.94221 23.95399 281 ft 3 kts 143°
2026-04-25 09:46 37.94231 23.95388 283 ft 1 kts 127°
2026-04-25 09:48 37.94230 23.95389 283 ft 1 kts 127°
2026-04-25 09:49 37.94218 23.95409 283 ft 5 kts 127°
2026-04-25 09:49 37.94191 23.95455 281 ft 8 kts 127°
2026-04-25 09:49 37.94149 23.95526 278 ft 12 kts 127°
2026-04-25 09:49 37.94092 23.95621 279 ft 15 kts 130°
2026-04-25 09:50 37.93999 23.95611 278 ft 16 kts 216°
2026-04-25 09:50 37.93916 23.95532 283 ft 16 kts 217°
2026-04-25 09:50 37.93823 23.95445 279 ft 18 kts 217°
2026-04-25 09:50 37.93722 23.95348 280 ft 19 kts 217°
2026-04-25 09:51 37.93612 23.95244 281 ft 20 kts 217°
2026-04-25 09:51 37.93494 23.95132 283 ft 22 kts 217°
2026-04-25 09:51 37.93369 23.95012 285 ft 23 kts 217°
2026-04-25 09:51 37.93234 23.94884 288 ft 25 kts 216°
2026-04-25 09:52 37.93095 23.94752 291 ft 21 kts 217°
2026-04-25 09:52 37.92974 23.94636 291 ft 23 kts 217°
2026-04-25 09:52 37.92844 23.94514 289 ft 24 kts 216°
2026-04-25 09:52 37.92714 23.94390 295 ft 24 kts 216°
2026-04-25 09:53 37.92609 23.94292 295 ft 16 kts 211°
2026-04-25 09:53 37.92588 23.94285 295 ft 2 kts 180°
2026-04-25 09:53 37.92563 23.94294 295 ft 5 kts 153°
2026-04-25 09:53 37.92535 23.94332 296 ft 7 kts 128°
2026-04-25 09:54 37.92500 23.94390 292 ft 10 kts 127°
2026-04-25 09:54 37.92504 23.94472 292 ft 12 kts 42°
2026-04-25 09:54 37.92580 23.94545 292 ft 16 kts 39°
2026-04-25 09:54 37.92665 23.94625 294 ft 0 kts 37°
2026-04-25 09:55 37.92704 23.94662 290 ft 23 kts 37°
2026-04-25 09:55 37.92971 23.94912 287 ft 80 kts 37°
2026-04-25 09:55 37.93572 23.95481 281 ft 133 kts 37°
2026-04-25 09:56 37.94371 23.96230 678 ft 145 kts 35°
2026-04-25 09:56 37.95219 23.97039 1136 ft 160 kts 36°
2026-04-25 09:56 37.96120 23.97912 1798 ft 162 kts 34°
2026-04-25 09:56 37.97043 23.98800 2371 ft 177 kts 35°
2026-04-25 09:57 37.98093 23.99805 2818 ft 201 kts 35°
2026-04-25 09:57 37.99272 24.00937 3422 ft 222 kts 36°
2026-04-25 09:57 38.00520 24.02139 4356 ft 228 kts 37°
2026-04-25 09:57 38.01794 24.03367 5300 ft 232 kts 38°
2026-04-25 09:58 38.03092 24.04618 6222 ft 238 kts 39°
2026-04-25 09:58 38.04441 24.05918 6824 ft 251 kts 39°
2026-04-25 09:58 38.05841 24.07268 6994 ft 253 kts 39°
2026-04-25 09:58 38.07221 24.08634 7026 ft 251 kts 46°
2026-04-25 09:59 38.08261 24.10418 7505 ft 253 kts 66°
2026-04-25 09:59 38.08789 24.12546 8405 ft 258 kts 81°
2026-04-25 09:59 38.08787 24.14872 9095 ft 269 kts 101°
2026-04-25 09:59 38.08162 24.17123 9972 ft 275 kts 117°
2026-04-25 10:00 38.07016 24.19147 10439 ft 296 kts 133°
2026-04-25 10:00 38.05288 24.20748 10699 ft 321 kts 152°
2026-04-25 10:00 38.03107 24.21583 11243 ft 335 kts 169°
2026-04-25 10:00 38.00776 24.21973 11978 ft 340 kts 170°
2026-04-25 10:01 37.98425 24.22378 12725 ft 343 kts 169°
2026-04-25 10:01 37.96052 24.22797 13507 ft 346 kts 168°
2026-04-25 10:01 37.93657 24.23226 14210 ft 349 kts 169°
2026-04-25 10:01 37.91236 24.23659 14788 ft 354 kts 169°
2026-04-25 10:02 37.88790 24.24094 14994 ft 355 kts 169°
2026-04-25 10:02 37.86313 24.24535 15048 ft 366 kts 169°
2026-04-25 10:02 37.83809 24.24977 15048 ft 370 kts 170°
2026-04-25 10:02 37.81253 24.25421 15048 ft 371 kts 170°
2026-04-25 10:03 37.78699 24.25862 15045 ft 371 kts 170°
2026-04-25 10:03 37.76138 24.26302 15042 ft 371 kts 170°
2026-04-25 10:03 37.73581 24.26743 15040 ft 371 kts 170°
2026-04-25 10:03 37.71026 24.27190 15039 ft 371 kts 170°
2026-04-25 10:04 37.68470 24.27641 15035 ft 371 kts 170°
2026-04-25 10:04 37.65915 24.28088 15042 ft 371 kts 170°
2026-04-25 10:04 37.63359 24.28534 15043 ft 371 kts 169°
2026-04-25 10:04 37.60821 24.29072 15040 ft 369 kts 162°
2026-04-25 10:05 37.58456 24.30262 15044 ft 365 kts 148°
2026-04-25 10:05 37.56420 24.32135 15046 ft 361 kts 134°
2026-04-25 10:05 37.54828 24.34563 15046 ft 359 kts 121°
2026-04-25 10:05 37.53760 24.37385 15043 ft 357 kts 108°
2026-04-25 10:06 37.53253 24.39354 15043 ft 357 kts 107°
2026-04-25 10:06 37.52487 24.42329 15046 ft 357 kts 107°
2026-04-25 10:06 37.51717 24.45299 15051 ft 357 kts 108°
2026-04-25 10:06 37.50956 24.48210 15029 ft 344 kts 108°
2026-04-25 10:07 37.50211 24.51053 14859 ft 340 kts 108°
2026-04-25 10:07 37.49470 24.53878 14307 ft 339 kts 108°
2026-04-25 10:07 37.48745 24.56648 14130 ft 326 kts 108°
2026-04-25 10:07 37.48047 24.59307 13975 ft 314 kts 107°
2026-04-25 10:08 37.47364 24.61909 13544 ft 312 kts 107°
2026-04-25 10:08 37.46686 24.64494 13095 ft 310 kts 107°
2026-04-25 10:08 37.46013 24.67058 12652 ft 308 kts 107°
2026-04-25 10:08 37.45343 24.69609 12229 ft 306 kts 107°
2026-04-25 10:09 37.44679 24.72140 11818 ft 303 kts 107°
2026-04-25 10:09 37.44019 24.74653 11410 ft 301 kts 107°
2026-04-25 10:09 37.43362 24.77145 10997 ft 299 kts 108°
2026-04-25 10:09 37.42705 24.79623 10617 ft 297 kts 108°
2026-04-25 10:10 37.42053 24.82082 10229 ft 295 kts 108°
2026-04-25 10:10 37.41406 24.84525 9874 ft 293 kts 108°
2026-04-25 10:10 37.40761 24.86964 9372 ft 295 kts 108°
2026-04-25 10:10 37.40111 24.89419 8814 ft 298 kts 108°
2026-04-25 10:11 37.39460 24.91864 8212 ft 290 kts 108°
2026-04-25 10:11 37.38826 24.94235 7639 ft 282 kts 108°
2026-04-25 10:11 37.38209 24.96542 7082 ft 275 kts 107°
2026-04-25 10:11 37.37614 24.98791 6542 ft 268 kts 107°
2026-04-25 10:12 37.37034 25.00987 6092 ft 260 kts 107°
2026-04-25 10:12 37.36694 25.03209 5769 ft 259 kts 91°
2026-04-25 10:12 37.37421 25.07564 5264 ft 255 kts 73°
2026-04-25 10:13 37.37951 25.09680 5013 ft 254 kts 73°
2026-04-25 10:13 37.38473 25.11792 4808 ft 253 kts 73°
2026-04-25 10:13 37.38981 25.13857 4610 ft 248 kts 73°
2026-04-25 10:13 37.39491 25.15935 4391 ft 243 kts 73°
2026-04-25 10:14 37.39974 25.17915 4192 ft 238 kts 72°
2026-04-25 10:14 37.40464 25.19915 3984 ft 235 kts 72°
2026-04-25 10:14 37.40939 25.21847 3785 ft 235 kts 72°
2026-04-25 10:14 37.41421 25.23807 3662 ft 233 kts 73°
2026-04-25 10:15 37.41896 25.25750 3658 ft 230 kts 72°
2026-04-25 10:15 37.42367 25.27673 3657 ft 230 kts 72°
2026-04-25 10:15 37.42839 25.29594 3656 ft 230 kts 73°
2026-04-25 10:15 37.43311 25.31512 3657 ft 230 kts 72°
2026-04-25 10:16 37.43778 25.33425 3657 ft 228 kts 73°
2026-04-25 10:16 37.44004 25.35409 3657 ft 231 kts 90°
2026-04-25 10:16 37.43942 25.37446 3659 ft 234 kts 91°
2026-04-25 10:16 37.43881 25.39477 3656 ft 227 kts 91°
2026-04-25 10:17 37.43826 25.41436 3661 ft 223 kts 90°
2026-04-25 10:17 37.43772 25.43378 3664 ft 222 kts 90°
2026-04-25 10:17 37.43719 25.45230 3664 ft 220 kts 90°
2026-04-25 10:17 37.43473 25.47129 3664 ft 223 kts 111°
2026-04-25 10:18 37.42582 25.48709 3654 ft 223 kts 137°
2026-04-25 10:18 37.41220 25.49599 3644 ft 222 kts 163°
2026-04-25 10:18 37.39710 25.49895 3624 ft 217 kts 168°
2026-04-25 10:18 37.38221 25.50166 3474 ft 214 kts 168°
2026-04-25 10:19 37.36766 25.50436 3300 ft 209 kts 168°
2026-04-25 10:19 37.35337 25.50702 3147 ft 207 kts 168°
2026-04-25 10:19 37.33911 25.50969 3032 ft 207 kts 168°
2026-04-25 10:19 37.32478 25.50973 2867 ft 208 kts 188°
2026-04-25 10:20 37.31142 25.50300 2682 ft 209 kts 211°
2026-04-25 10:20 37.30101 25.49041 2507 ft 209 kts 235°
2026-04-25 10:20 37.29496 25.47403 2334 ft 207 kts 252°
2026-04-25 10:20 37.29024 25.45693 2148 ft 208 kts 251°
2026-04-25 10:21 37.28672 25.43948 2035 ft 205 kts 270°
2026-04-25 10:21 37.28983 25.42243 2006 ft 200 kts 301°
2026-04-25 10:21 37.29887 25.40960 2005 ft 196 kts 329°
2026-04-25 10:21 37.31121 25.40294 2012 ft 193 kts 344°
2026-04-25 10:22 37.32389 25.39742 2011 ft 193 kts 344°
2026-04-25 10:22 37.33654 25.39187 2010 ft 192 kts 344°
2026-04-25 10:22 37.34916 25.38629 2010 ft 192 kts 344°
2026-04-25 10:22 37.36185 25.38072 1794 ft 193 kts 343°
2026-04-25 10:23 37.37436 25.37520 1507 ft 186 kts 343°
2026-04-25 10:23 37.38600 25.37001 1262 ft 173 kts 343°
2026-04-25 10:23 37.39664 25.36526 1068 ft 151 kts 343°
2026-04-25 10:23 37.40614 25.36110 896 ft 140 kts 343°
2026-04-25 10:24 37.41521 25.35720 733 ft 138 kts 341°
2026-04-25 10:24 37.42416 25.35318 563 ft 136 kts 342°
2026-04-25 10:24 37.43297 25.34920 409 ft 127 kts 342°
2026-04-25 10:24 37.43941 25.34644 409 ft 47 kts 341°
2026-04-25 10:25 37.44023 25.34609 407 ft 10 kts 341°
2026-04-25 10:25 37.44117 25.34569 406 ft 18 kts 341°
2026-04-25 10:25 37.44220 25.34524 404 ft 8 kts 341°
2026-04-25 10:25 37.44260 25.34501 406 ft 6 kts 268°
2026-04-25 10:26 37.44239 25.34503 406 ft 4 kts 158°
2026-04-25 10:26 37.44207 25.34518 406 ft 6 kts 159°
2026-04-25 10:26 37.44156 25.34541 406 ft 9 kts 161°
2026-04-25 10:26 37.44085 25.34572 402 ft 12 kts 161°
2026-04-25 10:27 37.44002 25.34607 408 ft 13 kts 161°
2026-04-25 10:27 37.43917 25.34643 410 ft 13 kts 161°
2026-04-25 10:27 37.43842 25.34677 407 ft 11 kts 159°
2026-04-25 10:27 37.43754 25.34710 403 ft 15 kts 168°
2026-04-25 10:28 37.43653 25.34692 406 ft 6 kts 206°
2026-04-25 10:28 37.43652 25.34691 406 ft 0 kts 206°